Orbital Elements at Epoch 2459200.5 (2020-Dec-17.0) TDB
Reference: JPL 19 (heliocentric ecliptic J2000)
Element | Value | Uncertainty (1-sigma) | Units |
e | .08592860169289744 | 4.4852e-08 | |
a | 2.604884989311966 | 1.7047e-08 | au |
q | 2.381050864609571 | 1.1976e-07 | au |
i | 3.217790109173134 | 3.617e-06 | deg |
node | 103.2926153587843 | 8.8222e-05 | deg |
peri | 87.42955413275872 | 9.0839e-05 | deg |
M | 226.7386581862415 | 2.3474e-05 | deg |
tp | 2459768.937783925883 (2022-Jul-08.43778393) | 0.00010268 | TDB |
period | 1535.611148950553 4.20 | 1.5074e-05 4.127e-08 | d yr |
n | .234434348986087 | 2.3013e-09 | deg/d |
Q | 2.828719114014362 | 1.8512e-08 | au |
|
| | Orbit Determination Parameters
Additional Information
|